Location: *
(48.8489°N, 2.3218°E)
Time: 16:24:28
(UTC+00:00)

SJ 16-02 - Visible Passes

Search period start: 20 November 2019 00:00
Search period end: 30 November 2019 00:00
Orbit: 607 x 616 km, 75.0° (Epoch: 20 November)

Date Brightness Start Highest point End Pass type
(mag) Time Alt. Az. Time Alt. Az. Time Alt. Az.
20 Nov 3.0 04:25:38 24° NNE 04:25:38 24° NNE 04:27:29 10° NNE visible
20 Nov 3.3 06:02:41 11° NW 06:02:41 11° NW 06:03:53 10° NNW visible
21 Nov 3.3 04:41:05 18° N 04:41:05 18° N 04:42:20 10° N visible
22 Nov 3.6 04:56:25 13° N 04:56:25 13° N 04:57:00 10° N visible
